sat.trackr.live / text

‹ back to catalog

AEROCUBE 6B

NORAD 40046 · 2014-033AN

PAYLOAD ACTIVE UNKNOWN

§ Identity

Operator
Country
US
Launch date
2014-06-19
Launch site
DLS
Launch vehicle
Mass (kg)
RCS (m²)
0.01

Purposes: tech_demo

External: N2YO · Heavens-Above · Gunter

§ Orbital elements

Epoch: 2026-09-09T22:45:47.543616Z

Period
95.98 min
Inclination
97.7313°
Eccentricity
0.0041286
Mean motion
15.00386959 rev/d
Perigee alt
537.0 km
Apogee alt
594.4 km
Semi-major
6,943.8 km
B*
4.4872e-4
RAAN
59.0297°
Arg perigee
75.0603°
Mean anomaly
285.5186°
Rev number
65,946

§ Raw data

AEROCUBE 6B1 40046U 14033AN  26252.94846694  .00005678  00000+0  44872-3 0  99952 40046  97.7313  59.0297 0041286  75.0603 285.5186 15.00386959659461

JSON: /api/v1/satellites/40046 · /tle

For live sub-satellite position, see the globe view (requires WebGL).

§ Visibility from observer

Set your observer location to see the next 7 days of passes ≥ 10°. The values pass through the URL so the page stays shareable.

No JS? Fill the form by hand. The geolocation button needs JavaScript.